Regional Weather Roundup
Issued by NWS

Home | Current Version | Previous Version | Text Only | Print | Product List | Glossary Off
Versions: 1 2 3 4 5 6 7 8 9 10 11 12 13 14 15 16 17 18 19 20 21 22 23 24 25 26 27 28 29 30 31 32 33 34 35 36 37 38 39 40 41 42 43 44 45 46 47 48 49 50

000
ASUS43 KFSD 281010
RWRSD

WEATHER ROUNDUP FOR SOUTH DAKOTA
NATIONAL WEATHER SERVICE SIOUX FALLS SD
400 AM CST TUE FEB 28 2017

NOTE: "FAIR" INDICATES FEW OR NO CLOUDS BELOW 12,000 FEET WITH NO
SIGNIFICANT WEATHER AND/OR OBSTRUCTIONS TO VISIBILITY.


SDZ001>005-009-010-012>017-281100-
NORTHWEST AND NORTH CENTRAL SOUTH DAKOTA

CITY           SKY/WX    TMP DP  RH WIND       PRES   REMARKS
BUFFALO          N/A     20  17  88 NE13      29.62R WCI   7
FAITH            N/A     22  22 100 NE14      29.70F WCI   9
MOBRIDGE       CLOUDY    25  20  81 NE13      29.75S WCI  14
$$

SDZ012>016-024>037-041>051-057-063-072>074-281100-
SOUTHWEST AND SOUTH CENTRAL SOUTH DAKOTA

CITY           SKY/WX    TMP DP  RH WIND       PRES   REMARKS
RAPID CTY ARPT FOG       25  23  92 E5        29.65F VSB 1   WCI  19
PIERRE         CLOUDY    28  25  88 NE12      29.73R WCI  18
CUSTER         PTCLDY    21  12  68 W8        29.56F WCI  11
ELLSWORTH AFB  FOG       24  24 100 SE6       29.64  VSB 1/4 WCI  17
PHILIP         CLOUDY    26  25  96 NE9       29.71F WCI  17
PINE RIDGE     CLOUDY    30  30 100 SW5       29.67F WCI  25
SPEARFISH      CLOUDY    21  19  93 CALM      29.60F FOG
WINNER         CLOUDY    33  30  88 NW5       29.71R WCI  29
$$

SDZ004>011-016>023-039-040-281100-
NORTHEAST SOUTH DAKOTA

CITY           SKY/WX    TMP DP  RH WIND       PRES   REMARKS
ABERDEEN       FLURRIES  23  18  81 N17       29.77F WCI   9
WATERTOWN      LGT SNOW  27  25  92 NE10      29.70F FOG     WCI  17
BROOKINGS      CLOUDY    31  28  89 NE9       29.68S WCI  23
SISSETON         N/A     24  23  96 N13       29.78F WCI  12
$$

SDZ017-020-022-023-036>040-048>070-281100-
SOUTHEAST SOUTH DAKOTA

CITY           SKY/WX    TMP DP  RH WIND       PRES   REMARKS
SIOUX FALLS    CLOUDY    35  31  85 N8        29.65S WCI  29
HURON          LGT SNOW  33  30  88 N14       29.70S FOG     WCI  23
CHAMBERLAIN    CLOUDY    35  33  94 N9        29.69R WCI  27
MITCHELL       CLOUDY    32  30  92 N9        29.66F WCI  24
YANKTON        CLOUDY    30  25  80 N8        29.62F WCI  23
$$

ABBREVIATIONS USED IN REMARKS
   TC - TEMPERATURE IN CELSIUS
  WCI - WIND CHILL INDEX
   HX - HEAT INDEX
  VSB - VISIBILITY




USA.gov is the U.S. government's official web portal to all federal, state and local government web resources and services.